User: anonymous   Login
Location: Narrabri
(30.3170°S, 149.7830°E)
Time: 05:36:42
(UTC+10:00)
Language:

Envisat - Orbit

View from above orbital plane
View from above orbital plane
View from above satellite
View from above satellite

Ground track
Ground track

The orbit data is extracted from the following two-line orbital elements,

1 27386U 02009A   18170.55457781 -.00000014  00000-0  89039-5 0  9996
2 27386  98.1838 204.5041 0001240  93.8442  80.4227 14.37924185853865
Epoch (UTC): 19 June 2018 13:18:35
Eccentricity: 0.0001240
inclination: 98.1838°
perigee height: 764 km
apogee height: 766 km
right ascension of ascending node: 204.5041°
argument of perigee: 93.8442°
revolutions per day: 14.37924185
mean anomaly at epoch: 80.4227°
orbit number at epoch: 85386

The dashed part of the orbit path shows where the satellite is in the earth's shadow,  

DLR